DW7240 Weather Reports


time (UTC)temp
C
wind
direction
speed
KPH
gust
KPH
rain 1hr
cm
rain 24hr
cm
rain mn
cm
humidity
%
barometer
mb
20260510094503 3 290 12.9 12.9 0.00 0.00 0.00 78 1009.4
20260510094003 3 290 12.9 12.9 0.00 0.00 0.00 78 1009.3
20260510093503 3 290 12.9 12.9 0.00 0.00 0.00 78 1009.0
20260510093003 3 290 12.9 12.9 0.00 0.00 0.00 78 1009.0
20260510092503 3 290 12.9 12.9 0.00 0.00 0.00 78 1009.0
20260510091503 4 290 16.1 16.1 0.00 0.00 0.00 78 1008.9
20260510090503 4 290 16.1 16.1 0.00 0.00 0.00 77 1008.7
20260510090003 4 290 16.1 16.1 0.00 0.00 0.00 76 1008.7
20260510085503 5 290 16.1 16.1 0.00 0.00 0.00 76 1008.6
20260510084503 5 290 16.1 16.1 0.00 0.00 0.00 75 1008.6
20260510084004 5 290 16.1 16.1 0.00 0.00 0.00 75 1008.6
20260510083503 5 290 16.1 16.1 0.00 0.00 0.00 75 1008.5
20260510083003 5 290 16.1 16.1 0.00 0.00 0.00 75 1008.5
20260510082503 5 290 16.1 16.1 0.00 0.00 0.00 74 1008.5
20260510082004 5 290 16.1 16.1 0.00 0.00 0.00 74 1008.4
20260510081504 5 290 16.1 16.1 0.00 0.00 0.00 74 1008.3
20260510081003 5 290 16.1 16.1 0.00 0.00 0.00 73 1008.4
20260510080503 6 290 16.1 16.1 0.00 0.00 0.00 73 1008.2
20260510080003 6 290 16.1 16.1 0.00 0.00 0.00 72 1008.1
20260510075504 6 290 16.1 16.1 0.00 0.00 0.00 71 1008.0
20260510075003 6 290 16.1 16.1 0.00 0.00 0.00 71 1008.0
20260510074503 6 290 16.1 16.1 0.00 0.00 0.00 71 1008.0
20260510073003 6 290 16.1 16.1 0.00 0.00 0.00 71 1007.9
20260510072503 7 290 16.1 16.1 0.00 0.00 0.00 71 1007.7
20260510072003 7 290 16.1 16.1 0.00 0.00 0.00 70 1007.7
20260510071503 7 290 8.0 8.0 0.00 0.00 0.00 70 1007.7
20260510071004 7 290 8.0 8.0 0.00 0.00 0.00 71 1007.6
20260510070504 7 290 8.0 8.0 0.00 0.00 0.00 72 1007.6
20260510070003 7 290 8.0 8.0 0.00 0.00 0.00 73 1007.6
20260510065504 7 290 8.0 8.0 0.00 0.00 0.00 75 1007.5
20260510065003 7 290 8.0 8.0 0.00 0.00 0.00 75 1007.5
20260510064503 7 290 8.0 8.0 0.00 0.00 0.00 75 1007.5
20260510064003 7 290 8.0 8.0 0.00 0.00 0.00 76 1007.4
20260510063503 7 290 8.0 8.0 0.00 0.00 0.00 76 1007.5
20260510063004 7 290 8.0 8.0 0.00 0.00 0.00 76 1007.3
20260510062503 7 290 8.0 8.0 0.00 0.00 0.00 77 1007.3
20260510062004 7 290 8.0 8.0 0.00 0.00 0.00 77 1007.2
20260510061504 7 280 8.0 8.0 0.00 0.00 0.00 77 1007.1
20260510061003 7 280 8.0 8.0 0.00 0.00 0.00 77 1007.1
20260510060005 7 300 11.3 11.3 0.00 0.00 0.00 77 1007.0
20260510055504 7 300 11.3 11.3 0.00 0.00 0.00 78 1006.8
20260510055003 7 300 11.3 12.9 0.00 0.00 0.00 76 1006.8
20260510054504 7 280 12.9 12.9 0.00 0.00 0.00 76 1006.8
20260510054003 7 280 12.9 12.9 0.00 0.00 0.00 76 1006.7
20260510053503 7 280 12.9 12.9 0.00 0.00 0.00 75 1006.7
20260510053003 7 280 12.9 12.9 0.00 0.00 0.00 76 1006.8
20260510052004 7 280 12.9 14.5 0.00 0.00 0.00 77 1006.4
20260510051503 7 310 14.5 14.5 0.00 0.00 0.00 77 1006.1
20260510051004 7 310 14.5 14.5 0.00 0.00 0.00 77 1006.4
20260510050503 7 310 14.5 14.5 0.00 0.00 0.00 79 1006.2
20260510050004 7 310 14.5 14.5 0.00 0.00 0.00 79 1006.1
20260510045503 7 310 14.5 14.5 0.00 0.00 0.00 80 1006.1
20260510045003 7 310 14.5 14.5 0.00 0.00 0.00 80 1005.9
20260510043504 7 310 14.5 14.5 0.00 0.00 0.00 84 1005.6
20260510043003 7 310 14.5 14.5 0.00 0.00 0.00 85 1005.5
20260510042503 7 310 14.5 14.5 0.00 0.00 0.00 86 1005.5
20260510042004 7 310 14.5 14.5 0.00 0.00 0.00 86 1005.5
20260510041003 7 300 11.3 11.3 0.00 0.00 0.00 85 1005.2
20260510040004 7 300 11.3 11.3 0.00 0.00 0.00 85 1005.1
20260510035004 8 300 11.3 11.3 0.00 0.00 0.00 85 1005.1
20260510034504 8 320 11.3 11.3 0.00 0.00 0.00 85 1005.0
20260510034004 8 320 11.3 11.3 0.00 0.00 0.00 84 1005.0
20260510033003 8 300 14.5 14.5 0.00 0.00 0.00 84 1005.1
20260510032503 8 300 14.5 14.5 0.00 0.00 0.00 84 1005.1
20260510031503 8 280 4.8 4.8 0.00 0.00 0.00 85 1005.1
20260510031004 8 280 4.8 4.8 0.00 0.00 0.00 84 1005.0
20260510030503 8 280 4.8 4.8 0.00 0.00 0.00 85 1005.1
20260510025504 8 280 4.8 4.8 0.00 0.00 0.00 87 1005.0
20260510025003 8 280 4.8 4.8 0.00 0.00 0.00 91 1004.9
20260510024504 8 280 4.8 4.8 0.00 0.00 0.00 96 1004.9
20260510024003 8 280 4.8 4.8 0.00 0.00 0.00 96 1004.8
20260510023503 8 280 4.8 4.8 0.00 0.00 0.00 96 1004.6
20260510023004 8 280 4.8 4.8 0.00 0.00 0.00 96 1004.6
20260510022003 7 280 4.8 11.3 0.00 0.00 0.00 96 1004.3
20260510021503 7 170 11.3 11.3 0.00 0.00 0.00 96 1004.3
20260510021003 7 170 11.3 11.3 0.00 0.00 0.00 96 1004.2
20260510020504 7 170 11.3 11.3 0.00 0.00 0.00 96 1004.2
20260510020004 7 170 11.3 11.3 0.00 0.00 0.00 96 1004.1
20260510015504 7 170 11.3 11.3 0.00 0.00 0.00 96 1003.8
20260510015003 7 170 11.3 11.3 0.00 0.00 0.00 96 1003.9
20260510014503 7 170 11.3 11.3 0.00 0.00 0.00 95 1003.7
20260510014004 7 170 11.3 11.3 0.00 0.00 0.00 95 1003.7
20260510013503 7 170 11.3 11.3 0.00 0.00 0.00 95 1003.6
20260510012504 7 170 11.3 11.3 0.00 0.00 0.00 95 1003.2
20260510012003 7 170 11.3 11.3 0.00 0.00 0.00 95 1003.3
20260510011503 7 200 9.7 9.7 0.00 0.00 0.00 95 1003.3
20260510011003 7 200 9.7 9.7 0.00 0.00 0.00 95 1003.2
20260510010003 7 200 9.7 9.7 0.00 0.00 0.00 94 1003.2
20260510005003 7 200 9.7 11.3 0.00 0.00 0.00 95 1003.0
20260510004503 7 220 11.3 11.3 0.00 0.00 0.00 94 1002.9
20260510004004 8 220 11.3 11.3 0.00 0.00 0.00 94 1002.8
20260510003504 8 220 11.3 11.3 0.00 0.00 0.00 94 1002.7
20260510003004 8 220 11.3 11.3 0.00 0.00 0.00 93 1002.6
20260510002503 8 220 11.3 11.3 0.00 0.00 0.00 93 1002.6
20260510002003 8 220 11.3 11.3 0.00 0.00 0.00 92 1002.6
20260510001503 8 190 9.7 9.7 0.00 0.00 0.00 91 1002.6
20260510000503 8 190 9.7 9.7 0.00 0.00 0.00 90 1002.2
20260509235503 8 190 9.7 9.7 0.00 0.00 0.00 90 1001.9
20260509235004 8 190 9.7 9.7 0.00 0.00 0.00 89 1001.9
20260509234503 9 190 9.7 9.7 0.00 0.00 0.00 89 1001.8
20260509234003 10 190 9.7 9.7 0.00 0.00 0.00 87 1001.7
20260509233503 10 190 9.7 9.7 0.00 0.00 0.00 86 1001.6
20260509233004 11 190 9.7 9.7 0.00 0.00 0.00 86 1001.3
20260509232504 12 190 9.7 9.7 0.00 0.00 0.00 85 1001.3
20260509232004 12 190 9.7 12.9 0.00 0.00 0.00 83 1001.3
20260509231504 13 170 12.9 12.9 0.00 0.00 0.00 80 1001.4
20260509231003 14 170 12.9 12.9 0.00 0.00 0.00 76 1001.4
20260509230503 15 170 12.9 12.9 0.00 0.00 0.00 79 1001.5
20260509230004 12 170 12.9 12.9 0.00 0.00 0.00 95 1001.6
20260509225503 8 170 12.9 12.9 0.00 0.00 0.00 96 1001.5
20260509225004 8 170 12.9 12.9 0.00 0.00 0.00 96 1002.0
20260509224504 8 190 8.0 8.0 0.00 0.00 0.00 96 1002.0
20260509223503 8 190 8.0 12.9 0.00 0.00 0.00 96 1002.0
20260509223003 8 130 12.9 12.9 0.00 0.00 0.00 96 1001.8
20260509222504 8 130 12.9 12.9 0.00 0.00 0.00 95 1002.2
20260509222004 8 130 12.9 12.9 0.00 0.00 0.00 94 1002.1
20260509221503 8 150 11.3 11.3 0.00 0.00 0.00 93 1001.9
20260509221005 8 150 11.3 11.3 0.00 0.00 0.00 92 1001.5
20260509220503 8 150 11.3 14.5 0.00 0.00 0.00 91 1001.7
20260509220004 8 120 14.5 14.5 0.00 0.00 0.00 90 1002.0
20260509215503 8 120 14.5 14.5 0.00 0.00 0.00 89 1002.0
20260509215003 8 120 14.5 14.5 0.00 0.00 0.00 89 1002.1
20260509214504 8 120 14.5 14.5 0.00 0.00 0.00 89 1002.2
20260509214003 8 120 14.5 14.5 0.00 0.00 0.00 89 1002.3
20260509213503 8 120 14.5 14.5 0.00 0.00 0.00 89 1002.4
20260509213004 8 120 14.5 14.5 0.00 0.00 0.00 89 1002.3
20260509212503 8 120 14.5 14.5 0.00 0.00 0.00 88 1002.3
20260509212004 8 120 14.5 16.1 0.00 0.00 0.00 88 1002.2
20260509211003 9 140 16.1 16.1 0.00 0.00 0.00 87 1001.8
20260509210503 9 140 16.1 16.1 0.00 0.00 0.00 88 1001.7
20260509210004 8 140 16.1 16.1 0.00 0.00 0.00 88 1001.7
20260509205003 8 140 16.1 16.1 0.00 0.00 0.00 88 1002.1
20260509204503 8 140 16.1 16.1 0.00 0.00 0.00 87 1002.5
20260509204003 9 140 16.1 16.1 0.00 0.00 0.00 88 1002.6
20260509203504 9 140 16.1 16.1 0.00 0.00 0.00 88 1002.6
20260509203004 9 140 16.1 16.1 0.00 0.00 0.00 88 1002.7
20260509202504 9 140 16.1 16.1 0.00 0.00 0.00 87 1002.3
20260509202003 10 140 16.1 37.0 0.00 0.00 0.00 87 1002.3
20260509201503 10 130 22.5 37.0 0.00 0.00 0.00 87 1002.4
20260509201003 9 130 22.5 37.0 0.00 0.00 0.00 87 1002.5
20260509200504 9 130 22.5 37.0 0.00 0.00 0.00 87 1002.6
20260509200004 10 130 22.5 37.0 0.00 0.00 0.00 86 1002.7
20260509195504 10 130 22.5 37.0 0.00 0.00 0.00 86 1002.8
20260509195004 10 130 22.5 37.0 0.00 0.00 0.00 85 1002.8
20260509194503 10 130 22.5 37.0 0.00 0.00 0.00 84 1002.8
20260509194004 10 130 22.5 37.0 0.00 0.00 0.00 85 1003.0
20260509193503 10 130 22.5 37.0 0.00 0.00 0.00 85 1003.0
20260509193003 10 130 22.5 37.0 0.00 0.00 0.00 84 1003.0
20260509192004 11 130 22.5 37.0 0.00 0.00 0.00 83 1003.0
20260509191004 12 150 19.3 19.3 0.00 0.00 0.00 82 1003.0
20260509190503 12 150 19.3 19.3 0.00 0.00 0.00 81 1003.0
20260509190004 12 150 19.3 19.3 0.00 0.00 0.00 82 1003.1
20260509185504 12 150 19.3 19.3 0.00 0.00 0.00 83 1003.1
20260509185004 12 150 19.3 19.3 0.00 0.00 0.00 82 1003.2
20260509184504 12 150 19.3 19.3 0.00 0.00 0.00 82 1003.0
20260509184003 12 150 19.3 19.3 0.00 0.00 0.00 82 1003.0
20260509183504 12 150 19.3 19.3 0.00 0.00 0.00 82 1003.0
20260509183004 12 150 19.3 19.3 0.00 0.00 0.00 82 1003.4
20260509182503 12 150 19.3 19.3 0.00 0.00 0.00 81 1003.4
20260509182004 12 150 19.3 19.3 0.00 0.00 0.00 81 1003.5
20260509181503 12 150 12.9 12.9 0.00 0.00 0.00 80 1003.7
20260509180503 12 150 12.9 12.9 0.00 0.00 0.00 83 1003.6
20260509175504 12 150 12.9 12.9 0.00 0.00 0.00 84 1003.7
20260509175004 12 150 12.9 12.9 0.00 0.00 0.00 83 1003.8
20260509174503 12 150 12.9 12.9 0.00 0.00 0.00 83 1004.0
20260509174003 12 150 12.9 12.9 0.00 0.00 0.00 81 1004.0
20260509172503 12 150 12.9 12.9 0.00 0.00 0.00 79 1004.2
20260509172003 13 150 12.9 14.5 0.00 0.00 0.00 80 1004.3
20260509171504 13 180 14.5 14.5 0.00 0.00 0.00 80 1004.3
20260509171004 13 180 14.5 14.5 0.00 0.00 0.00 81 1004.3
20260509170504 13 180 14.5 14.5 0.00 0.00 0.00 80 1004.3
20260509170004 12 180 14.5 14.5 0.00 0.00 0.00 79 1004.5
20260509165504 12 180 14.5 14.5 0.00 0.00 0.00 80 1004.5
20260509165004 12 180 14.5 14.5 0.00 0.00 0.00 78 1004.5
20260509164503 12 180 14.5 14.5 0.00 0.00 0.00 79 1004.5
20260509164004 12 180 14.5 14.5 0.00 0.00 0.00 81 1004.6
20260509163503 12 180 14.5 14.5 0.00 0.00 0.00 80 1004.6
20260509162503 12 180 11.3 11.3 0.00 0.00 0.00 80 1004.6
20260509162004 12 180 11.3 12.9 0.00 0.00 0.00 81 1004.8
20260509161503 12 180 12.9 12.9 0.00 0.00 0.00 80 1004.8
20260509161004 11 180 12.9 12.9 0.00 0.00 0.00 79 1004.8
20260509160503 11 180 12.9 12.9 0.00 0.00 0.00 80 1004.9
20260509160004 11 180 12.9 12.9 0.00 0.00 0.00 81 1005.0
20260509155003 11 180 12.9 14.5 0.00 0.00 0.00 82 1005.1
20260509154504 11 170 14.5 14.5 0.00 0.00 0.00 80 1005.1
20260509154003 11 170 14.5 14.5 0.00 0.00 0.00 80 1005.0
20260509153503 11 170 14.5 14.5 0.00 0.00 0.00 80 1004.9
20260509152503 11 170 14.5 14.5 0.00 0.00 0.00 82 1004.9
20260509152004 11 170 14.5 14.5 0.00 0.00 0.00 83 1005.0
20260509151003 11 180 12.9 12.9 0.00 0.00 0.00 82 1005.5
20260509150504 10 180 12.9 12.9 0.00 0.00 0.00 82 1005.5
20260509150004 10 180 12.9 12.9 0.00 0.00 0.00 82 1005.5
20260509145504 10 180 12.9 12.9 0.00 0.00 0.00 83 1005.8
20260509145004 10 180 12.9 12.9 0.00 0.00 0.00 83 1006.0
20260509144504 10 180 12.9 12.9 0.00 0.00 0.00 82 1005.9
20260509144003 10 180 12.9 12.9 0.00 0.00 0.00 82 1005.9
20260509143003 10 180 12.9 12.9 0.00 0.00 0.00 81 1005.9
20260509142004 9 180 12.9 12.9 0.00 0.00 0.00 81 1005.8
20260509141504 9 150 8.0 8.0 0.00 0.00 0.00 81 1005.8
20260509141004 9 150 8.0 8.0 0.00 0.00 0.00 80 1005.8
20260509140504 10 150 8.0 8.0 0.00 0.00 0.00 81 1005.8
20260509140005 9 150 8.0 8.0 0.00 0.00 0.00 81 1005.9
20260509135503 9 150 8.0 8.0 0.00 0.00 0.00 82 1005.8
20260509135003 9 150 8.0 8.0 0.00 0.00 0.00 81 1006.0
20260509134504 9 150 8.0 8.0 0.00 0.00 0.00 80 1006.0
20260509133004 8 130 9.7 9.7 0.00 0.00 0.00 82 1006.1
20260509132503 8 130 9.7 9.7 0.00 0.00 0.00 81 1006.2
20260509132003 8 130 9.7 9.7 0.00 0.00 0.00 80 1006.2
20260509131504 8 140 4.8 4.8 0.00 0.00 0.00 81 1006.2
20260509131004 8 140 4.8 4.8 0.00 0.00 0.00 80 1006.3
20260509130503 8 140 4.8 4.8 0.00 0.00 0.00 80 1006.2
20260509130004 7 140 4.8 4.8 0.00 0.00 0.00 79 1006.2
20260509125504 7 140 4.8 4.8 0.00 0.00 0.00 80 1006.2
20260509125004 7 140 4.8 4.8 0.00 0.00 0.00 79 1006.1
20260509124503 7 140 4.8 4.8 0.00 0.00 0.00 78 1006.1
20260509124003 7 140 4.8 4.8 0.00 0.00 0.00 79 1006.2
20260509123503 7 140 4.8 4.8 0.00 0.00 0.00 78 1006.2
20260509122504 6 140 4.8 4.8 0.00 0.00 0.00 78 1006.2
20260509121504 6 80 9.7 9.7 0.00 0.00 0.00 78 1006.3
20260509121003 5 80 9.7 9.7 0.00 0.00 0.00 78 1006.3
20260509120003 5 80 9.7 9.7 0.00 0.00 0.00 78 1006.3
20260509115503 5 80 9.7 9.7 0.00 0.00 0.00 78 1006.2
20260509115004 5 80 9.7 9.7 0.00 0.00 0.00 79 1006.2
20260509114504 5 80 9.7 9.7 0.00 0.00 0.00 78 1006.0
20260509114004 5 80 9.7 9.7 0.00 0.00 0.00 79 1006.1
20260509113003 4 80 9.7 9.7 0.00 0.00 0.00 79 1006.3
20260509112503 4 80 9.7 9.7 0.00 0.00 0.00 79 1006.3
20260509112004 3 80 9.7 9.7 0.00 0.00 0.00 80 1006.4
20260509111504 3 30 3.2 3.2 0.00 0.00 0.00 81 1006.3
20260509111004 3 30 3.2 3.2 0.00 0.00 0.00 81 1006.3
20260509110503 3 30 3.2 3.2 0.00 0.00 0.00 81 1006.4
20260509105504 3 30 3.2 3.2 0.00 0.00 0.00 81 1006.5
20260509105004 3 30 3.2 3.2 0.00 0.00 0.00 81 1006.5
20260509104004 3 30 3.2 3.2 0.00 0.00 0.00 81 1006.6
20260509103503 3 30 3.2 3.2 0.00 0.00 0.00 81 1006.5
20260509103003 3 30 3.2 3.2 0.00 0.00 0.00 82 1006.5
20260509102504 3 30 3.2 3.2 0.00 0.00 0.00 82 1006.5
20260509102003 3 30 3.2 4.8 0.00 0.00 0.00 82 1006.5
20260509101504 3 40 4.8 4.8 0.00 0.00 0.00 82 1006.6
20260509101004 3 40 4.8 4.8 0.00 0.00 0.00 82 1006.6
20260509100504 2 40 4.8 4.8 0.00 0.00 0.00 82 1006.6
20260509100005 2 40 4.8 4.8 0.00 0.00 0.00 82 1006.6
20260509095504 2 40 4.8 4.8 0.00 0.00 0.00 81 1006.5